Location: Bruderhein
(53.8035°N, 112.9265°W)
Time: 12:02:12
(UTC+00:00)

DIWATA 2B (PO-101) - Pass Details

Date: 31 March 2023
Orbit: 581 x 593 km, 98.0° (Epoch: 30 May)

Event Time Altitude Azimuth Distance (km) Brightness Sun altitude
Exits shadow 09:43:55 48° 348° (NNW) 767 ? -26.2°
Drops below altitude 10° 09:46:58 10° 346° (NNW) 1,914 ? -25.9°
Sets 09:49:08 0° 346° (NNW) 2,820 ? -25.7°
